NOAA NWS Hourly Roundups by Site

Regional Weather Roundup for Omaha, NE

To Select Another Site Choose from List

Select Site:  

000
ASUS43 KOAX 130710
RWRNE

WEATHER ROUNDUP FOR NEBRASKA
NATIONAL WEATHER SERVICE OMAHA NE
100 AM CST FRI DEC 13 2019

NOTES: SATELLITE DATA IS BEING USED TO AUGMENT CLOUD COVER ABOVE
       12000 FEET.
       "FAIR" INDICATES FEW OR NO CLOUDS BELOW 12,000 FEET WITH NO
       SIGNIFICANT WEATHER AND/OR OBSTRUCTIONS TO VISIBILITY.


NEZ001>004-019>022-054>056-130800-
NEBRASKA PANHANDLE

CITY           SKY/WX    TMP DP  RH WIND       PRES   REMARKS
SCOTTSBLUFF    FAIR      36  33  89 NW8       29.86F WCI  30
ALLIANCE       FAIR      37  31  78 W10       29.82F WCI  30
CHADRON        CLOUDY    39  30  70 NW13      29.85R WCI  31
GORDON         PTSUNNY   37  30  77 W10       29.82R WCI  29
KIMBALL        FAIR      34  28  79 W14       29.89F WCI  24
SIDNEY         MOCLDY    38  27  64 W10       29.88S WCI  31
$$

NEZ057>060-069>072-079>082-130800-
SOUTHWEST NEBRASKA

CITY           SKY/WX    TMP DP  RH WIND       PRES   REMARKS
NORTH PLATTE   CLOUDY    35  27  72 NW3       29.83F
IMPERIAL       CLOUDY    39  26  59 W12       29.86F WCI  32
LEXINGTON      FAIR      35  29  80 S6        29.84F WCI  30
MCCOOK         FAIR      33  24  69 W9        29.86F WCI  25
OGALLALA       CLOUDY    35  29  80 CALM      29.86R
$$

NEZ005>010-023>029-035>040-094-130800-
NORTH CENTRAL NEBRASKA

CITY           SKY/WX    TMP DP  RH WIND       PRES   REMARKS
VALENTINE      FAIR      25  20  81 CALM      29.79F
AINSWORTH      FAIR      34  31  87 SW5       29.78F WCI  30
BROKEN BOW     FAIR      33  27  78 S6        29.82F WCI  28
O`NEILL        CLOUDY    27  27  97 S12       29.83F WCI  17
ORD            FAIR      26  23  88 SE7       29.85F WCI  18
THEDFORD       CLOUDY    36  29  77 W5        29.81F WCI  32
$$

NEZ041-046>049-061>064-073>077-083>087-130800-
SOUTH CENTRAL NEBRASKA

CITY           SKY/WX    TMP DP  RH WIND       PRES   REMARKS
GRAND ISLAND   FAIR      26  23  88 S12       29.90F WCI  16
AURORA         FAIR      26  25  96 SE12      29.90F WCI  15
HASTINGS       MOCLDY    27  23  85 SE10      29.90F WCI  17
HEBRON         FAIR      24  22  94 SE3       29.95F
HOLDREGE       FAIR      34  30  85 S13       29.87F WCI  25
KEARNEY        FAIR      29  27  92 S7        29.88F WCI  22
YORK           FOG       23  23 100 SE8       29.93F VSB 1/2 WCI  14
$$

NEZ011>018-030>034-042>045-130800-
NORTHEAST NEBRASKA

CITY           SKY/WX    TMP DP  RH WIND       PRES   REMARKS
NORFOLK        FOG       24  23  96 SE10      29.92F VSB 1/2 WCI  14
ALBION         FOG       28  27  99 S7        29.90F VSB 1/2 WCI  20
BLAIR          CLOUDY    22  21  96 E7        29.97F FOG     WCI  14
COLUMBUS       LGT SNOW  25  24  96 SE9       29.94F VSB 3/4 WCI  15
FREMONT        CLOUDY    24  23  97 E5        29.98F FOG     WCI  18
TEKAMAH        CLOUDY    22  19  89 SE7       30.00F WCI  13
WAYNE          CLOUDY    22  20  94 SE13      29.94F FOG     WCI  10
$$

NEZ050>053-065>068-078-088>093-130800-
SOUTHEAST NEBRASKA

CITY           SKY/WX    TMP DP  RH WIND       PRES   REMARKS
LINCOLN        CLOUDY    25  23  92 E6        29.99F FOG     WCI  18
OMAHA EPPLEY   CLOUDY    22  20  92 E7        29.99F FOG     WCI  13
BEATRICE       FAIR      24  23  94 E5        29.97F WCI  19
FALLS CITY       N/A     25  21  85 N5        29.98F WCI  19
NEBRASKA CITY  FAIR      24  23  98 NE5       29.99F WCI  18
PLATTSMOUTH    FAIR      21  20  97 NE5       29.99F WCI  15
$$

NEZ044-045-051>053-067-130800-
OMAHA AREA

CITY           SKY/WX    TMP DP  RH WIND       PRES   REMARKS
OMAHA EPPLEY   CLOUDY    22  20  92 E7        29.99F FOG     WCI  13
BLAIR          CLOUDY    22  21  96 E7        29.97F FOG     WCI  14
FREMONT        CLOUDY    24  23  97 E5        29.98F FOG     WCI  18
MILLARD        CLOUDY    25  21  85 E3        29.99F FOG
OFFUTT AFB     MOCLDY    23  19  86 E6        30.00F WCI  16
PLATTSMOUTH    FAIR      21  20  97 NE5       29.99F WCI  15
WAHOO          CLOUDY    25  25  99 E6        29.97F FOG     WCI  18
$$


 

View Past Reports for Omaha, NE.

Products Courtesy of NOAA-NWS
NWS Information Parsing Script by Ken True at Saratoga Weather - Script by SE Lincoln Weather.